TJS-1

Last updated on Thu Oct 30 2025 00:02:50 GMT+0000 (Coordinated Universal Time)

1 40892U 15046A 25302.56433611 -.00000149 00000+0 00000+0 0 9993 2 40892 0.0852 277.1273 0004598 47.6159 71.4907 1.00263066 37256
UTC large
Height (km)
Speed (km/s)
/
Latitude / Longitude
Inclination (degrees)
Orbital Period (minutes)
Azimuth
Elevation
Range (km)
Doppler Factor

Next 0 passes for location: London (51.5072 / 0.1276)

Sorry there are no passes over London.